Theta_e
302 303 303 303 303 303 304 304 304 304 304 298 296 297 293 289 287 297 301 305 297 292 284 287 288 287 289 292 291 291 290 289 291 290 290 291 290 290 290 292 290 290 290 288 289 288 286 289 288 290 291 291 295 296 295 296 297 291 289 292 291 314 283 280 281 283 286 288 290 294 294 292 290 290 289 288 288 289 284 281 281 283 281 282 278 279 281
302 302 303 303 303 303 304 304 304 304 304 299 297 291 289 290 290 297 303 303 297 290 286 285 284 288 290 289 291 290 292 291 289 289 289 290 290 290 290 291 293 291 290 288 288 290 283 288 289 290 292 292 296 296 297 297 296 293 291 289 294 285 284 282 277 274 278 281 283 288 290 291 287 288 289 289 289 288 288 287 284 283 281 283 278 280 280
302 303 303 302 303 303 303 303 304 304 304 303 296 294 292 291 292 294 297 299 295 288 284 282 280 288 286 288 288 288 291 291 293 291 289 291 290 289 289 292 292 290 291 289 290 290 287 284 288 290 291 292 295 296 296 298 296 302 306 311 295 286 284 280 275 275 273 272 270 274 281 284 287 288 284 286 289 288 283 280 280 280 280 284 279 278 284
302 302 302 302 302 302 303 303 303 304 304 303 295 292 292 289 283 288 288 292 291 290 290 287 285 284 286 285 288 288 288 291 292 290 290 291 291 288 290 291 291 288 290 288 287 288 292 287 287 288 290 291 294 295 294 298 298 305 308 303 293 285 284 281 277 275 275 278 279 282 287 281 279 282 284 283 287 287 284 281 279 278 277 282 285 286 287
303 302 302 302 302 303 303 303 303 303 303 303 294 291 293 292 287 284 282 287 288 285 286 288 287 285 286 281 288 287 288 288 291 292 290 291 290 290 291 291 290 289 287 286 286 287 290 289 289 289 289 290 292 293 293 292 302 304 300 301 287 281 279 283 282 281 282 282 283 287 286 282 282 281 282 282 283 284 283 279 278 281 281 279 283 287 284
303 302 302 302 302 302 302 303 303 303 303 303 297 290 290 286 288 288 290 286 283 281 283 288 286 289 289 284 288 287 287 286 286 290 291 291 291 289 288 290 290 290 288 287 284 286 285 285 286 290 289 290 290 291 293 290 297 299 291 293 287 283 277 282 283 282 283 284 284 284 283 282 282 282 281 281 281 282 281 280 281 282 279 280 282 281 282
302 302 302 302 302 302 302 303 302 303 302 301 292 291 289 288 290 290 293 286 284 285 287 290 286 285 288 286 288 285 285 287 288 288 288 288 288 290 282 288 288 289 290 287 283 285 282 282 286 285 286 288 286 287 290 292 289 289 287 288 285 282 277 281 282 281 281 282 281 281 281 279 281 281 281 281 281 282 282 282 282 283 282 283 282 282 282
301 301 301 301 301 302 302 302 302 302 301 296 291 290 289 285 286 289 288 287 285 286 287 287 285 283 289 282 287 286 285 286 288 289 288 283 288 289 286 288 289 289 288 285 285 287 287 286 285 287 287 287 286 286 286 287 288 288 288 288 287 285 277 286 281 279 280 280 280 280 279 278 278 279 280 280 281 281 281 281 282 284 282 283 284 282 282
301 301 301 301 301 301 301 302 302 302 301 292 290 289 290 289 290 291 286 286 286 288 284 286 283 283 282 281 286 288 288 287 289 289 291 288 287 289 287 287 288 288 287 288 289 289 289 288 291 290 287 286 287 286 287 289 287 284 286 286 285 285 278 278 278 275 275 277 279 279 280 280 279 278 280 282 281 279 281 281 282 282 281 280 281 281 280
301 301 301 301 301 301 301 301 302 302 300 289 286 286 290 287 289 291 285 280 289 286 285 283 282 280 282 285 287 286 288 289 289 286 290 290 291 290 289 288 285 285 287 287 290 291 290 290 291 291 290 291 289 290 290 288 288 284 283 285 283 281 277 278 274 275 270 276 280 279 278 280 278 278 281 284 282 281 281 283 287 285 283 282 278 281 283
301 302 301 301 300 300 301 301 301 302 296 289 287 286 287 287 285 287 283 282 281 282 282 282 279 285 286 291 288 289 288 288 289 284 284 291 291 291 290 288 285 283 285 291 293 294 293 293 292 289 290 289 291 289 291 291 289 286 285 283 281 281 281 276 277 273 268 277 278 279 277 269 272 277 281 283 282 283 282 281 283 286 285 282 282 284 289
300 301 301 301 300 300 300 301 301 301 299 290 287 285 288 290 288 284 280 279 280 281 282 280 282 286 287 289 289 288 287 288 288 288 286 288 290 290 288 287 286 284 291 293 293 293 293 293 291 290 289 287 286 288 288 288 289 291 287 286 280 282 280 275 277 276 272 277 279 275 268 272 280 283 287 289 286 284 286 288 287 287 288 289 288 289 288
300 301 301 301 300 300 300 300 301 300 301 293 289 287 289 291 288 285 280 280 277 283 281 282 287 287 288 287 287 288 289 288 288 290 288 288 288 288 290 289 287 290 291 291 290 290 289 286 284 283 286 284 283 284 286 286 287 287 287 287 284 279 278 275 278 274 273 275 271 265 268 277 282 284 289 291 289 288 288 285 287 287 287 287 287 289 289
300 301 301 301 300 301 300 300 300 300 300 298 291 288 289 288 286 283 281 280 282 280 283 283 284 286 285 286 286 286 286 287 285 287 287 289 288 287 290 291 292 293 292 291 288 285 282 276 276 278 281 278 278 281 283 283 285 285 286 286 288 285 281 280 276 277 272 270 269 275 278 280 282 284 287 287 284 284 282 277 281 287 287 287 287 288 288
301 301 301 301 300 300 301 300 300 300 300 300 290 287 287 289 289 286 285 281 280 283 282 278 278 283 284 285 284 282 282 281 284 284 286 288 288 289 291 292 292 291 292 292 284 282 280 276 277 276 274 275 271 273 279 281 282 284 285 285 286 286 284 279 278 276 276 274 271 271 270 270 274 283 287 289 290 290 286 281 280 288 288 289 289 288 288
301 301 301 301 300 300 300 300 300 300 300 301 291 289 287 291 289 289 284 279 277 277 278 282 285 283 282 283 284 283 279 280 281 280 280 280 285 288 290 291 291 292 289 285 281 278 278 278 272 271 270 271 276 276 275 280 280 282 282 285 285 284 283 281 281 275 273 274 271 268 268 272 275 283 287 288 289 290 285 281 278 286 287 288 290 290 291
301 301 301 301 301 300 300 300 300 300 300 299 290 288 287 289 290 289 287 282 281 277 282 285 286 284 281 282 283 283 281 277 280 280 277 279 285 286 287 290 289 290 287 287 282 279 279 274 276 275 276 277 277 273 278 278 277 278 283 282 282 282 281 278 278 275 272 270 270 272 272 273 284 283 285 288 288 289 284 275 275 285 286 288 291 292 293
300 301 301 301 301 300 300 300 300 300 300 300 293 289 289 289 290 289 286 281 279 279 278 286 284 281 280 279 279 283 284 283 282 281 278 281 282 285 285 287 286 289 290 283 280 277 275 271 274 274 272 279 280 278 271 275 274 271 277 278 276 276 275 275 276 274 276 276 270 271 274 281 285 285 286 288 289 286 275 272 278 286 287 289 292 291 292
300 300 300 301 301 301 300 300 300 300 300 300 289 287 285 286 290 288 284 282 280 279 283 287 288 283 287 287 284 285 284 284 281 278 278 278 283 286 286 285 287 282 284 278 279 274 275 275 277 275 274 276 281 275 277 275 273 277 277 276 278 277 275 272 272 272 272 274 272 275 274 279 287 287 287 289 285 275 271 277 285 285 286 287 290 291 291
300 300 300 300 300 301 301 300 300 300 300 300 296 287 289 289 290 291 287 281 281 280 282 285 287 285 287 285 283 282 284 283 280 276 274 275 281 282 281 280 283 283 281 279 278 277 275 273 276 279 274 274 279 279 275 276 279 278 278 277 275 275 274 272 272 273 272 270 268 268 270 280 286 288 284 286 277 275 281 284 285 287 287 288 288 290 290
299 299 299 300 299 300 300 300 300 300 300 300 300 288 289 289 292 292 289 285 281 279 280 286 287 287 287 285 287 286 282 282 282 280 281 279 283 278 272 272 277 280 276 275 274 274 275 272 276 277 278 276 277 280 272 272 276 281 282 279 279 279 276 272 272 278 272 270 270 270 273 282 288 283 276 282 283 284 283 286 285 286 288 288 287 287 289
299 299 299 299 299 299 299 300 300 300 300 300 298 291 289 292 291 294 296 291 283 279 281 288 290 288 290 291 290 290 289 287 289 285 283 280 281 279 278 281 279 280 282 279 278 278 279 277 277 273 275 275 277 272 276 269 270 276 279 280 275 280 277 274 277 278 276 272 271 278 283 283 284 284 282 281 284 286 286 287 288 287 287 287 287 287 288
299 299 299 299 299 299 299 299 300 300 300 300 297 289 288 289 290 295 289 285 286 287 287 285 287 288 292 293 294 293 292 292 291 289 286 282 280 280 281 280 281 284 285 281 279 277 278 276 271 276 273 277 275 273 275 275 268 276 275 281 278 283 283 281 280 279 280 281 282 282 283 283 284 284 285 284 284 285 286 287 286 287 288 287 288 288 288
298 298 298 298 298 298 298 299 299 299 299 299 299 289 288 289 293 293 289 286 284 281 282 282 283 280 282 284 288 291 293 292 292 292 292 289 280 278 281 284 287 285 282 284 283 281 280 278 278 278 272 277 278 273 271 272 274 277 278 278 278 280 282 282 280 279 278 274 281 282 283 282 284 284 285 286 285 285 286 287 288 288 288 288 288 288 288
298 298 298 298 298 299 298 299 300 299 299 299 297 296 296 293 295 289 283 278 279 279 276 281 280 286 287 289 291 290 290 292 295 293 292 291 288 283 283 286 287 285 285 285 284 282 277 277 279 276 273 280 281 274 278 274 276 278 272 276 278 279 282 278 278 278 277 277 279 280 283 283 284 283 284 286 286 285 285 286 286 287 288 288 288 287 286
297 297 297 297 298 298 298 298 299 299 298 298 298 293 293 292 293 290 288 286 285 285 279 275 279 288 289 288 287 289 291 292 291 291 291 292 292 290 288 288 287 287 285 286 283 281 277 275 273 274 275 276 281 273 274 278 276 278 277 278 278 280 286 274 277 276 277 280 282 282 282 284 284 285 284 284 284 284 285 287 287 286 286 286 287 287 287
297 297 297 297 297 298 298 298 298 298 297 298 297 294 292 292 294 293 288 286 279 273 279 277 282 286 288 285 289 291 291 290 289 288 289 290 291 290 289 287 285 286 285 283 280 277 276 274 274 276 278 277 278 277 278 280 279 277 276 280 281 282 279 278 278 276 274 277 281 280 275 278 282 282 284 286 286 285 285 286 286 287 287 288 287 288 289
297 297 297 297 297 297 298 297 298 297 297 298 297 294 292 292 293 294 292 291 281 272 279 279 280 283 288 283 289 288 289 291 288 287 286 287 288 289 288 287 285 284 282 283 280 279 276 274 275 277 279 278 278 277 280 278 280 279 280 279 283 280 279 278 274 272 276 281 280 282 283 283 284 285 286 287 287 285 286 286 287 288 288 288 288 287 288
296 297 297 296 297 297 297 297 297 297 297 297 293 292 291 292 293 294 294 292 290 287 284 284 285 282 275 280 289 287 288 289 287 286 285 285 287 287 288 287 286 285 282 278 276 277 274 274 279 278 279 282 278 274 277 273 272 275 279 281 283 282 281 282 282 282 283 284 284 284 282 282 285 286 287 287 287 286 287 288 288 288 288 289 288 288 287
296 297 297 297 297 297 297 297 297 297 297 292 291 288 285 286 290 292 294 295 291 288 282 280 276 279 286 284 282 285 287 288 287 286 285 284 284 285 287 286 285 288 282 280 280 277 276 275 278 279 281 285 278 274 272 273 273 279 281 283 284 284 284 286 286 283 283 286 286 285 285 285 287 287 287 288 289 289 288 288 288 288 289 289 288 288 288
296 296 296 297 297 297 297 297 297 296 296 291 288 283 281 277 285 294 296 295 292 288 284 285 279 285 281 285 284 284 285 286 284 284 284 284 285 285 285 286 285 288 282 281 280 280 279 277 278 280 282 285 282 274 275 273 274 278 281 283 284 283 283 284 286 286 287 287 287 287 286 287 288 286 287 288 288 289 288 289 291 295 293 292 291 290 290
296 296 296 296 295 296 295 296 297 296 294 290 286 284 284 285 293 294 297 295 293 289 284 279 279 279 276 281 283 286 285 285 286 285 284 285 282 285 283 286 283 287 285 280 279 281 280 277 280 281 281 287 286 274 275 274 277 279 282 282 283 283 284 284 285 286 286 287 286 285 285 286 287 285 286 289 288 287 287 287 288 288 292 292 290 290 289
295 295 295 295 295 295 295 295 294 295 292 293 296 296 296 297 298 298 297 294 291 286 287 281 274 276 272 274 282 284 288 284 282 283 281 284 282 282 280 284 283 283 294 284 280 279 280 279 280 280 283 285 281 277 275 278 280 284 285 286 284 284 284 286 286 286 286 286 286 283 283 285 286 287 287 288 287 287 287 288 289 289 288 287 287 288 289
295 295 295 295 295 295 295 295 295 295 295 292 286 289 293 296 297 297 296 294 288 286 285 280 277 274 272 281 276 282 288 281 279 281 277 284 282 281 277 282 282 279 280 282 279 279 280 282 278 279 282 281 282 275 276 281 284 285 286 286 286 285 285 285 286 286 286 286 286 287 288 289 289 289 286 286 287 289 289 288 288 287 287 287 287 288 288
294 295 295 294 294 295 295 295 292 290 286 288 289 290 293 297 296 296 295 290 282 281 281 281 281 275 275 273 272 278 286 282 279 280 279 280 285 280 281 277 281 278 278 284 277 276 276 280 282 277 277 279 279 279 280 282 284 285 285 285 286 285 283 282 284 285 286 287 287 286 287 287 287 286 286 287 287 288 288 288 288 286 286 287 288 288 288
294 295 294 293 291 293 292 292 288 286 285 286 287 294 296 296 296 293 294 294 287 281 279 279 279 274 277 269 267 274 287 281 281 281 280 282 284 283 281 277 275 280 282 280 275 277 276 283 279 273 279 277 278 281 282 284 284 284 284 284 286 285 284 285 286 286 285 285 285 286 286 286 285 285 286 286 287 287 287 286 287 287 286 287 287 288 288
294 294 295 293 290 290 286 286 290 287 284 289 294 297 296 294 293 293 291 290 291 291 281 279 276 277 278 274 275 276 279 271 279 274 277 278 274 277 276 276 273 279 274 275 275 275 280 286 278 273 274 276 279 284 285 285 285 284 284 285 286 286 286 286 287 286 284 284 285 285 285 285 285 285 285 286 286 287 286 286 287 287 287 287 288 289 289
293 293 286 284 284 282 282 284 286 288 296 295 295 289 285 286 278 280 284 283 287 287 281 282 276 280 280 279 273 280 279 272 278 275 271 272 277 274 276 277 276 280 271 273 276 284 280 279 275 276 278 283 284 284 284 285 286 286 286 286 286 287 287 287 286 285 283 282 283 284 284 284 284 285 285 285 286 286 286 287 288 288 288 289 289 290 290
292 288 287 286 282 279 278 280 290 296 293 291 287 281 278 276 275 273 276 282 282 276 282 280 277 280 278 276 277 283 279 277 270 271 270 275 275 271 275 269 275 275 269 268 271 283 274 272 272 273 277 281 281 284 286 286 287 287 287 288 288 288 288 287 287 286 285 284 285 286 285 285 284 285 285 285 286 286 287 287 287 288 288 288 289 290 289
285 283 282 281 280 283 289 290 296 292 289 284 280 273 270 278 275 270 280 275 276 279 282 276 281 278 279 277 276 275 282 277 270 269 269 271 280 270 272 271 273 274 268 270 274 280 270 266 271 273 275 279 282 285 286 285 285 287 287 288 288 288 288 288 288 288 287 287 288 288 288 287 287 287 287 287 287 287 287 288 288 288 288 289 290 290 289
285 284 284 281 284 285 286 284 286 285 283 279 275 276 276 273 274 274 276 274 274 275 282 280 281 278 280 279 278 275 281 283 278 277 276 271 278 277 272 268 276 273 271 270 276 275 272 271 270 270 276 281 282 283 283 283 285 287 287 287 287 287 287 287 288 288 288 287 288 288 288 288 288 288 288 288 288 288 288 288 289 289 289 288 289 289 288
286 285 284 287 286 285 285 284 280 280 280 282 275 271 273 275 277 276 275 272 273 276 277 280 278 279 278 280 278 279 278 281 279 278 272 270 277 272 269 272 277 272 269 275 276 270 274 271 273 273 279 282 283 283 283 284 285 285 285 286 286 287 287 287 287 288 288 288 288 288 287 287 287 287 288 288 288 288 289 289 290 290 290 290 289 288 289
294 291 289 281 280 279 279 276 279 277 272 272 273 270 274 269 272 273 273 277 280 277 275 282 279 282 282 283 277 280 276 282 278 274 272 268 276 274 269 269 272 270 274 279 275 273 273 273 271 276 281 282 281 282 283 284 284 284 285 285 285 285 286 286 287 287 288 288 288 288 288 288 288 289 290 289 289 288 289 289 290 290 291 289 288 288 289
287 285 280 276 276 275 275 269 278 274 272 271 270 268 270 269 269 272 269 271 276 276 277 278 278 278 273 280 277 278 280 281 282 274 274 275 272 270 271 268 271 278 278 268 269 270 272 273 276 280 281 280 283 282 283 284 284 283 285 286 285 285 286 286 287 287 288 287 288 289 289 288 289 289 289 288 289 289 290 290 290 290 289 288 288 287 288
282 280 277 274 271 275 276 269 278 272 267 269 272 268 271 269 272 274 273 278 279 277 279 280 280 280 277 278 280 278 281 273 282 274 270 275 270 272 272 270 269 270 269 265 263 264 268 273 279 279 280 281 283 284 284 283 283 284 285 287 287 286 287 288 288 287 286 287 288 288 288 288 288 288 289 289 290 290 289 290 291 289 289 288 288 289 289
276 273 272 270 270 273 270 267 271 268 270 271 272 275 275 277 277 277 280 282 280 281 280 281 280 281 276 278 279 277 279 277 275 275 278 276 272 271 276 273 273 268 269 269 268 268 272 277 279 278 279 280 281 282 282 283 284 285 285 286 287 288 289 289 288 288 288 287 286 286 288 287 287 288 289 290 289 289 289 290 290 290 289 290 290 290 291
278 278 275 272 268 268 273 268 269 273 274 276 278 278 278 279 280 280 280 281 278 280 281 280 281 281 278 277 280 280 280 280 276 279 280 274 275 277 281 273 269 269 268 267 268 270 275 279 280 281 282 282 282 283 283 284 284 285 287 287 287 288 288 288 288 287 287 286 286 286 287 288 288 288 287 289 290 289 289 290 290 291 291 291 291 291 291
275 279 274 268 267 269 271 273 277 277 278 279 279 278 278 279 278 278 279 281 281 282 282 282 278 280 281 283 283 278 279 281 278 279 281 279 281 277 275 275 273 272 268 267 272 276 277 278 278 279 281 281 281 283 284 284 285 285 287 287 288 288 288 287 286 287 287 286 287 286 287 287 288 288 289 289 288 289 290 290 291 292 291 291 291 290 290
281 275 270 268 270 273 274 277 278 275 278 277 278 277 277 278 279 280 281 283 282 283 285 283 281 281 278 283 281 280 278 282 277 278 282 279 275 273 273 271 271 269 273 275 277 277 279 281 282 281 281 282 283 283 284 284 285 285 287 288 288 287 287 286 286 287 287 286 286 287 288 288 287 288 288 288 290 290 292 292 293 292 292 292 291 290 289
277 276 279 276 274 273 277 278 277 274 275 275 277 277 277 277 278 280 283 284 283 284 284 285 285 282 281 281 277 280 279 281 279 280 278 275 275 275 274 270 270 268 270 276 277 280 282 281 280 280 281 281 283 283 283 284 284 287 287 286 286 286 287 287 287 287 287 287 288 288 287 286 287 287 288 289 289 289 289 290 292 292 292 291 291 290 289
281 278 278 280 275 270 276 270 269 268 273 276 277 277 280 279 280 281 283 283 283 283 281 280 281 281 279 279 277 274 276 281 278 275 275 273 275 272 271 272 275 277 278 279 280 281 281 280 280 281 281 282 282 283 283 285 285 286 286 286 286 285 285 285 286 286 287 288 286 286 288 289 288 288 288 289 290 290 290 289 288 290 291 291 292 292 291
278 271 270 273 279 276 277 277 277 278 278 279 279 281 282 280 283 284 286 285 283 281 280 282 282 279 278 275 276 277 279 279 276 275 273 273 276 273 270 274 278 278 279 279 280 280 281 282 281 283 283 283 286 285 284 285 285 285 286 286 286 286 287 286 286 286 287 287 286 287 287 286 287 288 289 290 290 290 289 287 288 290 291 292 292 292 291
Wind_Speed
25 25 26 27 27 27 27 27 26 26 28 10 8 5 3 4 3 6 8 7 3 8 4 2 3 1 1 3 0 1 1 1 2 2 4 2 2 2 3 0 1 1 1 0 1 1 2 1 2 3 2 1 2 6 6 3 4 3 2 1 1 3 3 2 3 7 6 3 2 2 4 1 5 5 3 4 4 1 1 1 2 1 2 1 1 2 5
24 25 25 25 27 26 26 26 25 24 23 9 8 2 1 1 3 6 5 7 2 5 2 1 1 2 3 2 0 2 0 2 4 2 2 1 3 1 0 2 1 1 1 1 1 1 2 1 4 2 0 2 1 8 9 4 2 2 1 2 1 0 1 3 2 1 6 5 4 3 3 6 3 1 2 1 2 4 1 3 1 0 5 6 5 10 1
23 23 25 25 25 25 26 26 25 24 21 14 2 3 2 3 2 3 9 9 7 4 3 5 3 0 1 1 3 3 1 0 0 0 2 0 1 1 1 0 1 1 0 2 1 3 1 2 4 2 1 2 1 7 8 5 4 3 1 3 1 3 1 2 1 1 1 1 1 3 2 1 2 1 2 3 0 1 5 1 2 1 2 2 3 5 5
22 23 24 25 25 25 25 25 25 25 22 20 1 2 2 3 1 5 5 8 7 5 1 3 4 3 1 2 0 1 1 1 2 3 1 2 1 3 1 1 2 2 1 2 2 3 4 3 2 1 1 0 2 2 7 7 2 3 9 5 3 2 1 2 4 5 7 7 4 3 1 3 2 3 3 4 0 2 2 2 2 5 3 4 8 2 6
21 22 23 23 23 24 24 25 26 25 23 18 1 2 2 0 1 1 3 6 6 1 4 3 2 1 2 2 0 1 0 2 2 2 1 3 1 2 4 1 1 1 3 1 2 1 1 5 5 0 3 1 0 5 3 5 8 6 4 6 4 3 1 1 2 4 5 5 3 3 2 2 4 5 7 3 3 3 3 5 6 5 0 12 0 6 5
20 22 22 23 23 23 24 25 26 27 25 20 1 1 1 1 1 2 0 1 1 2 3 5 2 1 1 0 1 1 0 2 1 3 2 0 3 2 2 7 4 1 2 3 2 1 2 2 2 0 0 1 2 2 4 4 8 5 2 3 4 3 1 1 2 3 2 4 4 3 1 4 5 6 6 6 6 3 5 6 7 5 6 12 2 4 2
19 20 21 21 22 22 23 24 25 26 29 14 2 1 1 2 0 1 1 0 3 1 1 1 2 3 1 0 1 1 2 0 0 1 3 3 3 2 2 2 3 2 0 2 2 3 3 1 1 2 0 1 1 2 1 1 4 2 2 3 1 3 0 3 2 3 4 5 6 5 7 4 2 5 6 6 6 9 9 8 3 8 8 8 8 7 7
18 19 20 20 21 22 22 24 25 26 28 8 4 3 0 1 0 1 3 3 1 1 1 1 1 1 2 2 0 2 2 1 1 1 1 1 1 2 5 2 1 2 4 3 4 3 2 4 3 3 3 0 0 1 2 1 2 3 1 1 2 4 2 4 1 1 4 5 5 1 3 5 4 5 5 6 7 7 6 3 4 2 5 9 11 8 9
17 18 19 19 20 20 21 22 24 25 21 6 5 2 2 1 0 0 1 1 0 1 1 0 1 1 1 3 1 2 1 1 1 1 0 1 1 1 4 4 2 3 5 6 3 2 4 5 2 7 5 1 5 3 2 2 1 2 1 1 1 2 2 2 1 2 6 1 2 1 1 2 5 5 6 10 7 5 5 5 5 5 7 3 1 4 4
16 17 17 18 19 19 19 19 22 22 17 4 2 3 2 1 1 1 0 1 1 1 1 1 2 1 2 2 1 2 2 1 0 3 1 2 2 2 3 3 6 1 5 4 1 1 5 3 3 7 4 2 2 1 4 5 1 1 2 0 2 3 4 1 0 1 5 6 2 3 5 6 8 8 11 14 5 6 1 2 3 4 2 1 5 8 3
15 15 16 16 17 17 17 18 18 21 11 6 4 3 4 4 2 4 1 1 1 1 2 0 2 1 3 2 2 1 2 2 1 4 1 1 1 1 4 4 5 3 4 1 1 2 4 2 2 2 5 4 1 1 1 1 1 4 3 2 1 2 4 2 2 2 2 2 4 2 4 4 8 4 1 3 4 9 4 4 5 2 2 2 2 2 2
15 15 15 15 15 15 16 16 16 17 11 1 3 0 1 1 0 0 1 2 3 1 1 4 4 0 3 0 2 1 2 2 2 0 2 0 1 1 5 4 6 2 1 1 1 2 3 1 3 3 5 7 4 4 2 4 7 1 2 3 3 3 3 3 2 1 2 1 2 4 5 10 5 3 2 3 2 9 5 2 0 0 1 2 2 1 1
14 15 14 14 13 14 14 14 14 13 12 4 4 1 2 0 1 0 1 2 2 3 2 2 0 0 1 3 3 1 1 0 1 2 0 0 0 2 1 1 1 1 2 3 4 3 1 0 1 1 3 5 3 6 5 5 7 4 0 2 6 5 5 3 0 2 1 2 1 1 7 3 3 2 2 3 9 5 9 1 1 3 3 3 2 1 3
13 13 13 13 12 12 13 12 13 11 12 6 6 2 2 2 1 1 1 1 3 0 1 1 1 0 2 1 2 0 1 1 2 1 0 0 0 1 1 1 1 0 1 2 5 4 2 4 1 2 3 5 2 1 2 3 5 4 5 5 5 8 3 3 2 1 3 3 4 8 4 6 3 0 0 1 2 3 4 4 5 3 1 2 1 2 3
13 13 13 12 11 11 12 11 10 11 10 6 3 2 3 3 1 1 1 2 2 1 1 3 4 4 3 1 1 2 2 1 1 1 1 0 0 1 1 1 2 3 0 1 1 4 2 3 0 1 3 1 1 3 3 0 2 1 5 4 5 7 8 4 4 3 5 2 3 4 2 6 5 4 2 2 1 1 2 5 2 1 2 3 1 2 3
11 12 12 11 11 11 10 10 10 9 10 5 4 2 3 2 0 2 2 2 2 2 3 4 2 3 3 1 1 3 3 1 1 1 2 3 1 3 1 3 2 1 3 5 2 4 1 2 3 3 4 4 3 2 2 1 1 1 3 4 5 4 4 4 8 3 4 1 3 3 4 7 5 4 4 1 1 1 3 4 2 1 2 2 4 4 4
13 12 12 11 10 10 9 9 9 8 9 7 2 3 2 1 3 1 1 2 1 3 1 1 1 2 5 2 2 2 1 2 3 1 1 1 0 2 6 6 3 3 1 3 1 2 1 2 2 2 2 2 2 3 1 0 1 1 2 5 6 5 2 2 0 2 3 4 3 7 3 1 2 6 2 1 1 3 3 2 4 1 5 3 3 5 4
15 14 12 11 10 9 10 9 8 7 7 7 2 1 4 1 1 1 3 2 2 2 1 0 1 2 2 4 4 1 3 2 3 2 2 1 1 1 2 3 3 2 0 3 1 2 2 3 4 3 4 3 1 3 3 4 4 4 3 4 3 2 0 3 9 5 4 6 4 3 6 2 2 2 4 1 3 2 1 5 2 2 4 3 4 4 5
15 16 13 13 11 10 10 8 8 9 7 5 2 3 2 2 3 2 4 2 2 1 1 3 1 2 0 1 2 1 1 2 3 5 1 2 1 0 0 2 1 1 5 3 3 3 4 3 2 2 3 1 1 3 1 2 4 0 2 2 1 1 2 1 3 2 5 5 6 8 4 4 3 2 1 2 2 1 4 3 3 3 4 4 5 5 5
13 11 13 14 13 12 11 9 8 8 7 7 1 1 5 3 3 1 1 1 1 1 2 1 1 0 1 2 2 2 1 2 1 4 4 3 1 2 2 1 3 2 1 2 1 1 2 4 5 1 1 3 3 3 1 2 0 4 2 2 4 7 4 5 5 2 3 1 1 1 4 0 1 1 2 1 3 3 4 2 2 5 5 5 4 5 5
15 14 14 13 13 11 9 9 9 9 8 7 1 1 3 3 4 1 0 1 2 1 3 1 1 0 1 1 0 1 3 3 3 3 3 3 1 3 3 5 2 1 3 3 6 2 3 1 1 2 2 4 2 2 2 0 2 4 2 3 3 3 1 2 4 5 4 4 4 4 4 5 3 3 2 0 3 3 4 1 4 4 4 4 4 4 5
14 12 13 13 12 12 10 10 9 10 8 6 2 4 1 3 3 4 3 1 1 2 3 1 1 2 4 3 3 3 3 3 3 2 5 2 2 1 2 2 2 2 1 3 3 1 1 1 1 1 1 1 3 2 1 2 1 2 3 2 1 4 4 3 4 2 4 3 3 3 3 4 2 3 1 3 2 3 4 3 5 4 5 3 2 4 5
12 11 13 12 10 11 12 11 10 10 9 6 3 2 4 1 3 2 2 1 2 1 1 1 1 2 1 3 4 5 5 3 1 1 1 3 1 1 3 2 1 2 0 1 3 4 3 4 2 4 1 1 4 1 1 3 2 1 3 3 2 1 1 1 3 4 2 2 3 1 0 1 3 3 3 4 4 4 3 4 4 4 6 4 4 5 7
13 10 10 11 13 13 12 11 10 11 11 11 5 3 1 2 2 2 3 2 1 1 4 1 2 3 4 3 2 0 2 1 4 4 1 3 3 1 2 2 0 1 1 1 2 4 3 3 2 2 2 3 5 1 4 4 4 3 1 4 1 2 0 1 2 2 2 3 1 3 0 4 5 6 5 8 6 5 4 4 5 5 5 6 6 8 8
13 13 13 11 10 11 10 10 9 9 10 11 3 3 3 1 1 2 1 0 1 2 2 2 1 6 2 2 1 0 3 2 2 4 4 3 4 5 4 2 3 2 0 1 2 5 2 2 0 1 2 5 6 4 2 2 6 3 3 5 1 4 2 2 1 0 3 6 4 4 5 6 8 5 9 13 10 3 2 5 5 5 6 6 8 6 7
14 15 14 13 11 10 10 9 9 7 8 10 6 3 3 3 1 2 2 1 1 1 0 2 3 2 1 4 2 2 0 1 2 3 4 5 5 6 5 0 1 3 3 2 3 3 3 2 1 1 5 4 2 3 2 6 2 1 5 7 6 3 2 2 1 1 5 6 8 5 5 10 11 9 6 5 5 5 6 7 7 6 6 8 8 7 9
14 14 14 13 13 11 10 10 10 10 10 9 5 3 4 3 4 6 4 4 3 2 1 2 3 2 3 3 3 1 3 3 1 3 3 3 5 4 3 1 2 1 2 2 3 4 2 1 3 3 3 4 3 3 1 1 2 3 5 3 2 1 8 2 2 4 4 10 8 1 3 9 8 4 7 9 6 4 7 8 8 8 9 10 10 12 9
13 13 13 14 14 12 10 10 8 9 9 7 4 4 2 2 4 5 1 1 3 3 1 0 2 6 4 3 2 0 2 2 3 3 4 4 4 4 5 5 3 3 1 3 1 1 2 4 3 2 0 1 1 4 1 1 1 3 10 5 6 7 4 6 5 5 11 8 3 4 7 9 11 9 8 10 7 4 7 10 11 11 11 10 9 11 13
14 13 14 14 13 11 10 9 9 9 8 3 4 2 0 3 4 4 4 2 2 1 2 2 2 4 0 2 3 5 2 2 2 3 3 2 4 4 6 6 6 5 3 3 2 2 3 3 3 5 3 4 5 3 2 3 3 10 7 7 9 4 7 8 10 10 8 6 8 5 4 9 11 10 9 9 6 5 9 11 11 12 12 12 10 9 10
15 13 12 12 13 12 12 10 8 11 6 6 3 2 0 3 4 7 7 5 5 3 2 1 1 4 0 3 4 1 0 1 1 1 2 2 2 4 6 6 4 4 3 4 4 2 3 2 2 2 2 1 2 1 1 3 3 9 3 9 8 7 7 10 8 8 10 9 6 5 8 11 11 11 9 8 8 7 8 11 12 12 13 11 10 11 8
14 13 13 12 12 11 10 10 11 8 8 4 3 2 2 1 2 4 8 6 6 4 3 1 3 3 6 3 2 8 8 4 4 5 5 5 5 4 2 3 0 5 3 0 2 4 2 1 2 2 0 3 3 2 4 2 5 4 5 7 7 7 7 9 7 10 12 11 9 7 5 9 8 4 8 11 12 10 8 9 12 12 13 11 11 10 11
12 12 11 10 6 7 11 12 10 7 4 5 4 4 2 1 0 3 9 8 6 4 2 2 1 1 2 3 3 2 2 2 2 2 1 3 3 4 2 4 4 5 5 4 3 2 2 3 3 3 4 5 4 2 1 3 10 12 7 5 6 5 6 7 8 9 9 9 6 8 11 13 10 9 11 12 9 6 7 9 10 10 12 11 10 10 11
12 11 10 10 11 9 3 5 4 5 5 6 1 7 4 5 3 4 8 8 4 1 1 2 2 2 0 7 3 3 3 2 1 2 1 2 4 2 2 2 2 1 4 2 1 3 3 5 2 3 6 2 3 2 3 12 15 7 9 9 5 6 8 8 8 7 8 8 8 9 12 13 12 8 10 11 8 7 9 11 12 9 7 8 10 11 11
9 11 10 8 6 5 7 6 5 6 5 2 1 3 3 3 6 7 7 4 3 0 1 3 2 2 4 3 3 2 3 1 1 1 1 1 2 4 3 3 2 3 3 6 4 2 1 2 3 4 1 2 1 1 10 14 8 12 13 10 9 6 7 7 8 10 9 9 8 11 14 15 14 10 4 7 12 12 10 8 8 9 10 9 10 11 9
10 9 8 3 2 3 4 8 7 1 2 2 1 3 3 9 9 6 3 2 4 2 3 1 1 1 1 2 1 5 1 1 1 2 2 1 0 4 2 3 1 3 5 4 1 3 4 4 5 3 7 2 3 9 10 10 14 10 8 12 11 5 3 5 9 11 11 9 8 10 12 13 12 11 12 12 13 12 11 11 8 6 8 10 10 10 8
10 7 2 6 2 4 5 3 2 2 1 2 3 4 5 8 8 2 2 1 2 1 1 3 3 3 2 3 1 3 1 0 1 1 1 1 1 1 2 3 2 4 0 2 4 1 3 3 5 4 4 4 10 8 10 11 13 13 11 13 14 6 7 10 13 10 7 6 8 9 10 9 10 13 12 12 12 12 11 9 11 8 7 9 11 10 7
7 3 10 10 4 4 2 2 1 2 4 2 6 10 11 9 5 4 2 0 1 0 2 0 3 3 2 4 1 6 2 0 1 2 1 1 3 1 2 1 3 1 2 1 0 3 5 1 2 3 4 8 10 10 11 12 13 14 13 11 10 8 8 10 10 9 7 6 8 8 9 10 10 10 10 11 12 10 8 10 11 10 9 10 8 7 8
11 10 6 1 2 2 3 0 2 3 6 11 10 3 4 3 2 0 1 1 2 3 1 1 1 1 3 2 2 3 3 2 3 1 1 1 1 1 0 2 3 2 1 2 5 5 2 1 3 6 8 10 9 6 9 11 12 10 10 10 11 11 10 9 7 5 6 7 8 10 8 7 10 11 9 10 9 9 10 10 9 7 6 7 8 8 7
8 3 2 1 1 1 1 2 2 9 8 5 3 2 1 1 3 1 1 1 1 1 2 3 4 4 3 1 5 3 2 1 3 2 1 2 2 2 1 2 4 4 2 2 4 3 1 2 2 1 9 7 5 14 13 12 11 11 12 12 11 12 11 11 9 10 11 11 13 12 8 8 8 9 6 7 8 8 8 8 7 7 6 7 8 7 6
1 2 2 2 1 1 2 4 5 5 1 2 3 2 0 0 2 2 0 2 1 1 2 4 3 4 7 8 7 6 0 4 1 1 1 2 0 2 2 2 3 4 1 1 5 2 4 2 2 0 10 6 9 13 8 6 7 11 10 11 12 12 11 11 11 8 9 12 11 12 10 9 8 9 10 9 8 9 9 7 6 6 6 8 7 6 6
1 3 3 2 1 2 1 1 4 3 2 1 1 1 1 1 1 1 1 2 2 2 2 3 3 2 3 3 4 7 3 2 1 2 2 1 3 4 2 1 2 3 1 1 4 2 1 1 2 5 10 4 7 6 3 4 8 10 10 9 9 9 9 9 10 10 6 9 9 9 10 10 9 9 9 10 9 8 8 8 8 7 6 6 7 6 4
3 3 3 3 3 2 2 2 2 2 1 0 1 1 0 1 1 1 1 2 3 1 2 3 4 6 6 9 7 3 2 1 2 1 1 1 2 3 2 0 1 2 3 5 1 1 1 1 3 6 8 10 8 5 5 8 9 7 10 8 7 7 8 8 9 9 6 9 9 9 8 7 8 8 8 8 8 8 8 7 8 8 8 7 4 4 4
13 9 5 4 2 2 0 2 1 1 2 2 1 2 1 1 2 2 1 1 1 1 3 2 1 1 1 3 1 1 3 1 2 0 1 2 1 2 2 1 2 1 3 1 2 1 2 4 4 10 10 8 5 5 7 8 7 6 8 7 6 6 6 7 7 8 5 7 8 7 6 5 7 7 5 4 5 4 6 7 8 7 7 5 4 3 3
3 3 3 1 2 1 1 1 0 1 0 0 2 2 3 1 2 0 0 3 2 2 4 6 5 6 2 2 4 2 1 1 1 1 0 0 2 0 1 1 3 4 2 1 1 3 5 4 10 11 7 3 3 5 7 7 5 5 7 7 5 4 4 4 4 3 4 3 3 4 3 4 5 4 3 3 5 7 7 7 6 6 5 4 2 2 3
3 2 2 1 1 1 1 1 0 2 2 2 2 2 3 4 5 5 6 3 2 3 1 2 5 5 3 2 2 1 1 2 1 2 2 2 1 1 2 3 2 1 2 2 2 2 1 6 7 4 7 8 9 8 6 5 4 5 5 5 4 1 1 1 1 2 3 3 4 2 3 4 3 4 4 4 5 5 5 7 6 3 2 2 4 4 3
2 2 1 3 2 1 1 0 0 1 2 2 3 5 4 3 4 5 4 1 2 2 5 5 4 5 3 2 3 3 2 2 2 2 1 2 3 3 3 0 1 1 1 0 2 5 8 8 5 5 6 6 7 7 5 6 5 3 1 3 3 3 3 3 4 3 4 4 3 3 5 4 4 4 5 6 4 3 3 4 4 4 1 5 5 6 5
2 2 1 1 2 1 0 1 2 4 3 3 4 4 5 3 3 2 2 2 3 4 2 2 4 3 5 3 1 1 1 1 2 2 2 1 2 1 1 1 2 2 3 3 4 5 5 8 8 7 7 8 6 6 5 5 4 3 5 4 4 4 3 4 4 4 4 3 3 3 4 5 5 5 3 4 5 2 2 1 2 4 5 5 6 6 7
2 1 1 1 2 1 3 4 3 1 1 2 3 3 4 1 1 3 5 4 4 4 5 4 2 1 0 1 1 3 3 2 2 3 2 2 1 1 2 2 2 2 3 4 7 5 6 6 6 6 6 3 4 5 5 4 4 3 4 4 3 3 2 2 3 4 3 3 3 3 4 4 4 3 3 4 4 2 0 2 3 6 8 6 5 5 5
1 1 1 1 1 1 2 2 1 2 2 2 4 2 1 3 5 6 3 1 3 4 6 4 2 3 1 2 3 3 3 3 3 2 3 2 2 3 3 3 2 3 5 6 6 5 6 8 6 5 5 4 4 4 5 4 4 3 2 2 2 1 1 2 3 3 4 4 3 4 4 3 2 2 3 1 1 1 1 3 4 5 7 7 6 6 5
1 1 1 1 2 2 1 1 0 3 2 2 1 1 2 3 4 5 1 0 1 2 2 2 2 1 1 2 2 2 2 3 2 2 3 3 3 2 1 2 4 5 3 4 5 7 8 7 4 4 4 4 4 3 3 3 3 3 2 2 2 2 2 2 3 3 3 3 4 4 3 2 3 3 2 3 2 2 3 2 3 7 6 6 7 8 8
0 1 2 2 3 2 1 1 1 1 4 2 1 1 2 2 1 1 0 1 1 1 1 3 2 3 2 3 1 2 1 2 3 2 2 2 2 2 3 3 4 6 5 5 6 6 6 3 2 4 4 4 4 4 3 3 2 3 2 1 2 2 2 2 3 4 4 4 3 3 3 4 3 2 1 2 4 5 6 5 3 4 6 6 7 8 8
1 1 1 2 1 2 2 2 1 4 6 6 3 3 2 1 2 3 1 3 2 1 2 1 2 2 3 4 3 2 1 1 1 1 0 3 2 3 4 6 5 5 6 6 6 4 3 4 4 4 4 4 4 4 3 2 2 2 2 3 2 2 3 3 3 3 4 4 4 3 3 3 1 1 3 4 4 5 6 5 3 4 4 5 5 5 6
Wind_Direction
342 343 344 345 347 347 348 349 350 352 353 8 349 327 3 50 232 266 301 346 48 66 59 292 43 59 243 300 317 301 37 120 277 39 354 38 38 33 49 214 85 254 147 191 77 117 76 36 127 157 112 73 350 295 310 281 34 80 342 26 307 80 63 38 308 315 303 330 305 51 35 64 34 13 36 52 33 29 159 170 191 169 309 333 335 236 248
342 343 344 345 346 347 347 348 349 351 1 349 310 33 85 214 266 318 300 1 58 83 166 167 298 290 318 45 254 309 154 52 1 26 339 78 358 82 292 5 92 158 95 110 130 208 92 7 103 66 117 77 355 4 8 33 61 70 216 115 286 53 305 111 37 6 342 340 356 1 333 47 63 81 343 84 67 53 159 85 12 246 222 181 138 247 279
341 342 343 344 346 346 347 347 346 348 350 356 311 349 280 286 277 246 298 348 44 120 188 131 155 28 89 29 44 345 26 138 159 141 26 8 136 97 13 192 217 43 56 78 84 32 110 139 341 110 91 158 351 7 20 10 94 65 76 259 295 84 187 88 118 162 220 246 283 266 297 279 287 253 345 14 50 13 9 324 26 148 283 147 199 248 257
339 341 342 343 345 347 347 346 345 344 346 350 93 249 28 29 357 301 333 8 22 63 43 102 132 108 102 56 273 92 19 339 331 114 78 26 16 78 196 347 67 60 40 53 24 18 5 93 187 73 118 296 349 307 343 35 64 50 49 44 84 121 53 100 152 150 185 209 217 256 75 4 27 285 310 294 349 51 100 105 138 212 228 224 241 232 302
338 339 341 342 344 346 347 346 345 343 342 351 129 338 119 189 67 345 329 344 37 58 8 23 42 98 144 109 220 34 321 259 319 25 115 357 79 46 46 318 86 326 81 141 78 333 42 4 83 34 152 251 253 314 9 340 18 33 52 17 81 59 56 266 135 181 202 189 195 186 123 212 247 274 285 283 171 167 164 164 225 186 355 277 196 177 212
336 337 340 342 343 346 347 347 346 344 340 345 280 345 4 17 262 103 215 136 293 33 342 44 50 24 57 170 42 155 48 14 115 335 34 35 16 107 334 34 38 180 165 134 114 17 54 23 129 307 158 76 349 78 1 48 328 353 45 6 103 136 137 240 111 257 236 207 222 226 219 205 224 229 238 252 255 198 210 229 208 156 194 245 233 96 283
334 336 338 342 344 346 347 348 349 346 339 343 152 255 286 119 296 180 312 243 262 146 261 354 71 36 91 100 57 110 106 102 199 160 324 23 347 36 130 335 335 326 137 128 141 164 112 282 316 178 176 132 92 92 345 265 314 46 52 18 106 88 273 199 187 220 236 253 245 242 230 260 268 237 231 231 207 229 228 251 204 173 236 248 283 275 252
330 333 336 341 344 346 348 350 353 351 341 341 73 50 329 322 80 242 357 80 97 323 24 77 53 149 327 121 297 130 161 162 339 5 81 40 334 37 90 179 17 50 115 115 116 210 172 171 174 221 131 74 88 171 181 206 324 36 79 120 333 96 276 151 206 286 260 247 259 327 235 193 242 258 248 230 224 236 237 234 253 218 282 278 273 289 294
325 329 332 337 341 345 348 351 355 357 349 38 48 52 46 295 272 252 121 134 264 97 21 92 124 110 328 96 224 85 177 176 177 108 44 150 177 20 154 171 103 16 69 73 106 197 159 149 138 169 144 119 214 126 254 160 61 359 48 57 324 58 269 47 60 316 297 318 45 305 92 172 207 256 263 245 220 234 237 210 220 159 221 239 3 309 267
323 325 328 333 338 343 347 352 358 3 3 83 37 30 320 358 287 42 106 142 310 190 100 13 101 248 226 147 194 148 216 245 179 86 3 69 90 169 156 168 101 41 81 106 111 192 176 185 187 166 192 149 163 168 166 156 129 175 141 279 134 163 124 137 142 271 266 275 59 37 19 358 321 272 232 230 206 182 218 253 214 207 161 202 264 247 205
321 324 325 329 334 340 345 351 357 7 17 36 28 1 357 27 343 351 40 106 313 86 123 8 120 218 139 27 119 33 97 39 64 121 237 50 24 15 130 133 113 144 161 161 277 213 201 183 143 82 71 45 62 350 103 169 168 156 156 101 39 110 139 171 156 169 245 301 360 11 31 309 244 234 205 147 168 180 182 233 209 234 141 209 187 195 196
310 315 320 323 330 335 341 346 353 4 24 3 153 133 246 263 191 79 79 149 250 321 152 207 178 287 122 175 122 152 113 78 60 98 146 242 271 6 77 62 92 103 244 335 37 114 110 102 44 50 57 24 12 353 26 227 253 215 150 154 154 134 112 168 149 136 268 314 353 24 290 243 241 290 274 269 176 158 169 127 255 324 127 122 72 50 331
306 309 311 318 324 329 334 339 346 354 8 32 58 17 291 267 178 149 137 124 218 176 148 255 341 65 136 103 89 87 98 20 52 43 108 132 339 26 354 136 127 170 38 345 35 54 77 199 8 26 305 353 351 5 303 262 261 268 350 144 129 163 129 157 143 150 68 72 102 129 244 247 288 314 38 82 77 94 97 52 321 250 196 161 138 253 283
299 300 306 310 316 321 324 332 339 343 356 27 13 311 304 16 66 31 76 125 267 246 244 65 314 98 76 89 130 10 0 24 343 186 78 192 152 222 318 86 129 163 307 101 63 82 38 39 9 16 306 11 357 332 261 277 243 223 221 218 180 148 106 122 245 162 194 199 163 223 300 298 266 87 152 160 165 181 152 197 262 210 214 151 169 304 301
292 295 297 300 307 310 315 323 331 335 343 27 34 349 352 358 89 144 219 93 233 323 181 179 229 199 148 99 106 73 41 310 11 240 267 338 149 226 200 287 354 349 164 111 38 39 160 106 47 125 323 57 240 244 331 217 310 210 218 190 158 157 158 232 125 259 124 173 306 336 350 267 285 247 290 324 253 141 164 100 294 297 265 199 182 235 276
277 283 287 292 297 301 307 312 318 326 331 11 62 336 282 305 56 81 120 137 130 293 264 213 158 136 129 161 158 146 191 114 180 7 353 347 280 327 314 322 334 86 55 66 93 108 112 149 217 124 214 203 221 65 284 0 339 358 35 120 114 41 72 138 153 203 63 108 174 222 211 246 212 210 225 265 264 131 117 70 286 232 234 248 177 246 258
269 273 277 280 285 292 299 304 310 316 324 344 32 348 312 341 38 32 51 25 91 207 284 218 176 108 91 64 45 41 149 154 162 146 269 314 289 272 295 328 315 65 85 91 32 78 82 68 100 150 284 169 119 209 194 19 145 327 54 56 77 94 72 86 96 217 190 149 170 244 209 228 173 219 275 237 153 119 73 339 287 14 290 246 185 227 253
276 266 263 267 268 274 283 291 294 300 313 330 57 329 288 316 53 103 62 107 127 276 266 235 109 114 166 187 161 225 72 60 46 44 110 255 7 359 315 0 12 332 101 139 125 105 135 132 172 188 210 248 178 99 222 174 170 205 182 158 166 116 26 122 204 192 202 163 256 336 301 276 274 233 249 235 188 90 138 214 230 236 250 249 194 225 235
273 276 269 263 261 260 264 273 285 292 293 310 82 33 310 282 336 86 124 69 92 194 275 280 214 133 217 78 112 160 175 166 160 113 184 27 228 222 159 246 201 206 8 140 73 143 154 240 57 125 157 271 117 208 198 88 224 340 117 74 27 338 109 300 74 165 192 202 184 231 247 239 191 277 192 289 75 210 210 230 200 192 247 243 196 219 244
262 260 265 265 262 258 256 259 268 278 287 293 98 202 257 319 309 344 78 178 118 190 281 293 24 18 291 142 147 107 62 29 46 124 154 164 269 60 42 34 310 83 341 59 123 216 121 204 197 119 275 198 229 161 52 250 340 167 168 203 137 203 141 218 186 207 53 88 166 319 268 355 113 182 38 37 121 226 199 241 282 206 228 217 228 203 243
262 257 254 259 262 260 264 272 270 265 263 274 67 86 349 302 345 330 99 133 123 101 305 307 54 87 75 83 204 165 131 175 162 128 216 155 214 91 144 205 220 108 202 137 169 224 158 204 231 180 219 141 251 71 209 59 328 272 151 187 198 207 125 248 251 176 177 163 181 201 212 188 197 111 169 223 183 188 167 165 281 269 212 229 224 240 221
257 258 264 261 263 265 263 257 260 268 258 260 117 87 165 287 305 302 317 97 98 175 204 198 181 217 237 232 217 193 189 170 206 153 135 144 343 142 177 128 193 146 208 116 54 49 5 181 57 68 172 252 17 164 165 79 255 258 342 114 302 229 165 185 203 254 141 202 209 238 218 202 241 132 184 207 232 177 177 193 227 251 278 214 219 260 270
255 254 252 256 256 257 258 258 254 253 258 248 117 134 200 278 308 330 38 37 307 342 335 350 358 314 294 252 238 213 214 206 156 118 141 113 46 12 135 112 300 213 59 99 173 153 186 123 202 152 67 193 177 158 346 150 211 266 176 238 177 289 152 141 87 268 265 253 188 204 86 258 286 251 196 207 229 251 214 212 224 234 230 203 221 248 256
251 249 251 253 251 250 252 253 253 256 249 243 188 130 204 205 237 22 12 56 120 295 319 344 77 289 225 270 329 73 134 168 189 207 175 121 131 246 339 266 209 38 353 265 181 131 191 109 201 115 160 238 91 137 184 264 219 204 82 302 318 271 215 121 179 275 37 277 22 121 267 283 263 265 240 204 187 210 193 198 207 230 227 235 238 241 252
248 242 240 242 245 244 249 253 250 249 263 260 212 123 139 95 219 137 121 158 304 111 202 335 246 235 215 246 330 77 232 194 151 169 179 165 165 157 179 218 172 144 220 204 102 60 48 119 203 99 155 255 116 255 225 134 289 136 213 250 65 318 156 63 236 145 155 240 251 261 282 273 282 300 326 319 315 298 211 208 220 238 252 246 250 246 253
254 249 243 237 234 240 244 243 245 242 243 243 224 181 189 213 174 110 112 101 109 99 85 263 267 328 18 29 313 233 223 124 138 126 172 193 194 192 213 6 347 26 94 92 79 111 127 70 117 132 138 272 86 154 211 197 181 248 175 226 187 173 37 239 153 134 277 298 282 269 304 295 292 306 295 258 239 263 293 292 283 270 264 266 260 229 238
267 259 253 242 240 240 243 244 242 240 230 234 210 168 169 193 175 172 159 182 94 345 356 264 272 314 3 302 254 252 261 247 187 167 199 209 200 210 187 192 227 349 88 58 30 126 82 107 115 210 154 227 119 190 153 275 188 239 245 235 179 212 247 169 46 313 296 244 256 83 327 285 286 275 268 274 267 245 267 278 283 282 285 284 288 290 278
255 262 263 255 244 239 235 236 240 235 233 228 172 182 167 178 212 220 173 140 123 180 136 243 307 270 269 309 280 207 228 199 173 159 169 198 194 176 187 195 160 145 154 145 284 115 131 126 236 232 139 283 71 291 184 261 349 294 244 223 171 188 196 137 175 171 240 249 224 197 225 256 267 268 268 270 277 271 272 273 277 282 279 277 280 286 292
252 244 246 248 248 238 236 240 234 234 224 144 98 94 26 225 215 213 213 163 110 84 103 234 296 23 349 243 18 336 302 154 155 145 148 144 159 177 189 185 177 176 111 89 122 124 141 209 156 143 170 214 103 265 61 246 205 241 242 159 184 200 163 168 200 222 258 265 249 214 189 246 266 260 254 262 263 251 265 274 275 274 275 279 276 264 266
251 245 246 247 250 248 234 232 234 235 184 115 116 83 93 286 201 190 195 166 151 124 111 283 326 267 297 352 308 211 290 197 166 154 181 166 162 178 193 164 188 166 142 161 166 164 215 149 240 265 260 87 136 206 119 205 219 258 151 169 189 194 193 210 203 199 245 244 238 226 221 240 250 258 268 271 267 249 250 263 268 272 275 271 269 274 263
252 251 243 237 234 238 239 228 234 230 144 110 118 160 120 340 249 170 177 157 155 113 173 271 243 312 347 245 238 267 255 215 198 204 219 196 195 195 194 130 162 157 149 159 107 216 134 173 145 235 262 196 142 162 205 187 250 282 184 162 208 191 197 221 214 217 231 250 257 258 262 257 260 298 286 267 264 260 254 258 260 259 260 268 269 267 273
253 253 259 248 250 238 231 233 218 189 153 152 156 182 193 207 119 160 177 151 133 101 138 141 260 333 245 290 242 229 188 203 152 145 192 150 207 189 187 171 195 177 157 160 205 103 214 204 142 195 146 216 145 231 160 215 247 240 128 186 235 223 207 222 229 233 236 242 261 297 282 270 254 235 259 264 261 248 234 244 253 258 265 270 273 269 265
242 242 241 239 213 219 247 265 216 163 185 198 146 44 1 5 56 141 151 138 102 182 188 94 168 228 338 250 292 293 160 77 64 135 249 209 194 130 156 165 142 26 238 128 240 184 208 148 149 146 235 162 166 212 211 240 243 275 269 250 224 229 227 230 235 238 229 227 192 222 254 264 270 242 227 253 266 261 264 267 269 272 274 272 274 275 275
248 250 246 248 246 226 226 220 111 138 84 105 159 221 229 118 83 115 132 101 98 93 75 129 189 134 251 308 54 283 95 141 257 149 122 285 161 99 185 119 215 150 271 168 250 104 289 93 170 200 53 241 154 96 248 250 255 258 263 270 252 233 236 248 248 249 242 234 217 220 239 253 264 275 276 270 271 271 265 264 270 279 275 273 271 267 267
247 243 236 195 331 226 134 139 131 124 137 168 240 257 191 175 154 155 119 72 112 161 143 243 167 143 250 1 42 272 111 97 286 238 140 276 65 156 187 90 224 153 269 88 41 184 164 201 157 128 224 124 137 229 244 266 261 257 266 270 266 242 230 253 256 240 245 243 229 233 240 252 265 267 260 261 264 268 276 278 270 254 270 271 270 274 276
254 244 210 92 227 114 93 89 99 110 91 178 208 266 212 198 186 143 111 115 124 155 89 221 129 176 168 131 226 268 62 93 225 35 188 139 51 39 94 118 106 228 87 119 203 184 179 202 101 239 132 163 222 222 241 244 259 261 250 254 262 227 218 226 250 256 233 226 230 239 245 247 242 249 254 257 262 269 268 272 279 269 248 259 268 271 276
243 183 122 95 56 80 108 134 164 149 197 164 120 102 82 75 63 86 67 68 304 179 162 159 84 232 140 201 259 276 63 317 307 59 327 117 195 294 65 64 189 201 55 348 1 176 247 89 146 212 194 216 239 227 235 244 243 252 256 250 258 251 235 242 243 253 269 254 245 246 240 242 247 249 250 254 257 258 266 263 258 262 266 262 264 266 259
103 114 83 60 148 100 74 111 185 232 175 149 142 101 354 31 73 57 105 88 235 135 269 119 163 159 22 69 239 259 60 276 50 85 314 247 76 309 74 113 222 114 244 227 237 181 118 129 210 220 249 239 249 251 238 239 247 249 256 262 260 258 251 247 245 238 251 274 275 261 249 233 243 250 241 252 250 253 249 247 258 256 247 257 258 260 275
129 123 109 89 89 120 168 224 258 119 97 50 42 77 343 357 79 23 226 185 54 47 239 139 209 150 152 204 268 322 150 82 9 24 89 278 100 300 59 102 289 68 303 22 297 94 26 306 309 273 260 243 232 247 241 244 252 252 253 254 255 258 260 260 245 228 231 231 240 248 238 237 241 256 235 234 254 250 251 259 265 263 251 251 256 258 255
38 90 113 108 120 106 66 11 90 121 47 91 353 95 130 262 104 249 148 78 221 212 179 218 185 166 190 189 201 272 234 115 192 283 193 306 324 137 255 76 259 96 253 130 246 65 126 229 273 33 267 226 231 249 246 232 238 250 248 249 251 251 252 253 258 238 222 240 242 249 254 246 238 242 257 259 257 267 276 271 255 258 252 248 248 248 246
67 98 96 152 165 104 78 324 8 52 76 68 35 358 93 15 241 208 111 182 168 224 155 179 126 165 197 166 164 222 272 100 180 133 119 233 246 80 47 215 247 77 255 218 275 86 102 114 278 204 250 214 221 252 239 234 236 248 250 247 248 252 253 252 253 253 230 238 245 246 245 243 240 239 237 242 250 254 256 263 273 263 254 256 257 249 238
186 150 163 107 100 108 85 45 57 81 41 127 117 86 210 254 31 11 172 159 194 193 255 170 192 186 202 182 192 152 286 186 134 118 99 302 289 123 213 328 3 122 237 233 97 35 118 221 248 258 253 259 259 264 255 258 257 247 259 254 251 252 248 247 254 257 225 227 235 240 240 235 235 234 233 232 237 240 250 256 258 262 257 259 260 264 246
103 100 85 83 49 21 38 48 304 125 130 119 96 158 160 92 233 172 209 244 280 166 245 96 226 121 347 85 22 191 186 207 128 245 96 214 286 57 90 20 84 200 235 41 79 98 184 229 251 255 256 258 253 248 247 243 257 263 264 268 260 249 240 243 239 252 234 218 233 237 243 237 236 238 236 229 237 257 252 242 244 257 269 273 266 241 208
51 47 59 354 83 285 68 30 263 83 84 92 140 168 149 212 297 34 49 260 212 228 202 153 202 139 192 210 135 164 54 354 98 91 34 296 88 117 69 205 208 242 43 36 93 164 222 227 225 247 265 275 259 253 261 267 263 274 287 278 262 254 246 250 261 269 278 251 236 246 244 239 245 256 229 216 210 227 254 263 254 240 259 262 222 191 179
86 34 55 40 41 264 87 300 322 135 176 208 164 192 183 198 199 184 209 226 159 211 180 116 138 157 144 203 63 297 135 186 219 114 219 130 70 242 134 238 233 40 136 220 267 289 332 261 243 225 266 268 265 262 261 262 256 247 256 300 300 254 202 235 259 236 260 270 260 238 249 251 247 265 257 247 245 230 235 258 273 273 240 141 117 110 109
79 150 91 87 59 316 126 173 88 28 281 171 205 201 204 206 162 211 228 141 167 146 160 194 157 143 145 218 149 194 156 126 121 213 165 101 126 218 219 211 76 83 321 179 235 226 224 249 271 246 237 244 261 271 271 266 263 248 224 253 264 312 316 340 331 294 271 270 266 234 248 254 247 255 265 257 250 241 229 249 270 265 138 113 127 131 130
45 10 73 106 102 271 94 156 219 203 188 209 228 222 225 221 212 189 210 187 203 201 156 136 145 169 153 195 136 324 126 150 166 209 117 158 191 200 139 128 209 181 177 226 231 242 250 247 250 259 258 257 263 270 271 273 265 229 223 233 268 282 318 339 305 283 267 256 266 264 259 252 249 239 249 292 296 317 302 28 75 98 118 136 145 142 138
119 224 106 85 224 170 170 241 205 273 223 216 253 213 234 230 263 250 244 204 196 144 145 131 103 36 317 331 125 195 180 179 183 234 176 200 129 126 170 195 225 224 178 183 227 218 238 253 239 243 254 251 251 276 288 280 268 236 233 239 248 268 300 283 290 294 315 314 283 262 257 254 244 246 257 260 287 313 345 127 142 117 111 126 137 131 119
141 132 140 207 207 176 231 272 116 275 261 242 271 307 284 193 226 243 249 135 151 177 181 143 172 125 212 161 178 183 198 167 205 193 158 195 179 188 175 211 167 245 253 204 241 229 235 248 245 245 262 272 259 246 260 256 262 259 233 237 248 246 261 284 287 289 298 295 286 286 287 277 265 267 275 305 280 274 96 130 116 110 127 135 133 119 103
76 348 25 70 354 323 295 47 88 265 293 297 145 226 252 248 267 274 273 340 336 76 69 62 98 151 200 155 212 177 213 152 203 164 165 177 196 207 163 231 217 200 247 218 223 246 246 250 255 269 264 263 273 258 263 281 250 243 239 222 233 246 262 275 295 293 282 275 282 276 261 281 282 260 269 272 229 137 92 69 98 117 121 122 118 116 123
336 120 244 190 169 231 176 228 221 255 307 312 82 288 264 290 239 282 162 114 165 121 121 195 169 168 178 186 192 216 213 138 116 177 168 186 184 153 193 211 229 209 234 233 226 239 260 278 208 245 278 282 274 276 262 260 261 259 260 260 254 252 268 263 261 278 290 290 284 286 279 262 259 256 239 144 124 102 82 59 58 103 122 127 130 128 131
82 4 283 285 263 201 204 229 246 235 246 263 265 244 157 241 240 248 173 131 152 146 212 178 172 177 163 207 208 188 65 61 194 120 151 262 173 160 216 206 235 230 228 254 270 261 254 249 225 244 253 264 276 279 289 298 282 284 271 258 249 251 274 285 279 273 278 297 290 263 265 278 278 133 132 123 115 104 108 117 114 112 129 130 113 91 100